This demonstration page uses our WeatherBlox Daily Observations layout. Learn more.

Left ArrowRight Arrow

41.12389, -100.76542

Hourly Observations for November 24, 2016

Temp ( °F °C ) Dew Point ( °F °C ) Humidity (%) Winds ( mph kmh ) Pressure ( in mb ) Visibility ( mi km ) Precip ( " mm )
12:15 am 00:15 Partly Cloudy with Mist and Fog 28 -2.2 27 -2.8 96 96 ESE 10 17 30.18 1022 6 10 0.00 0.00
12:53 am 00:53 Mostly Cloudy with Mist and Fog 28 -2.2 26 -3.3 92 92 ESE 10 17 30.07 1018 3 4 0.00 0.00
12:56 am 00:56 Mostly Cloudy with Mist and Fog 28 -2.2 26 -3.3 92 92 ESE 9 15 30.18 1022 1 2 0.00 0.00
1:04 am 01:04 Mostly Cloudy with Freezing Fog 28 -2 27 -3 93 93 ESE 12 19 30.15 1021 1 1 0.00 0.00
1:12 am 01:12 Mostly Cloudy with Freezing Fog 28 -2 27 -3 93 93 ESE 13 20 30.15 1021 0 0 0.00 0.00
1:44 am 01:44 Mostly Cloudy with Freezing Fog 28 -2 28 -2 100 100 E 9 15 30.15 1021 0 0 0.00 0.00
1:53 am 01:53 Mostly Cloudy with Freezing Fog 30 -1.1 29 -1.7 96 96 E 7 11 30.06 1018 0 0 0.00 0.00
2:53 am 02:53 Mostly Cloudy with Freezing Fog 31 -0.6 30 -1.1 96 96 ESE 8 13 30.06 1018 1 1 0.00 0.00
3:21 am 03:21 Mostly Cloudy with Mist and Fog 31 -0.6 30 -1.1 96 96 ESE 12 19 30.15 1021 1 2 0.00 0.00
3:37 am 03:37 Cloudy with Mist and Fog 32 0 30 -1 93 93 ESE 8 13 30.15 1021 2 3 0.00 0.00
3:53 am 03:53 Cloudy with Mist and Fog 32 0 31 -0.6 96 96 ESE 9 15 30.04 1017 1 2 0.00 0.00
4:09 am 04:09 Mostly Cloudy with Mist and Fog 32 0 30 -1 93 93 ESE 14 22 30.12 1020 1 1 0.00 0.00
4:35 am 04:35 Cloudy with Mist and Fog 32 0 31 -0.6 96 96 SE 14 22 30.06 1018 1 2 0.00 0.00
4:42 am 04:42 Cloudy with Mist and Fog 32 0 30 -1 93 93 SE 14 22 30.06 1018 2 3 0.00 0.00
4:53 am 04:53 Cloudy with Mist and Fog 32 0 31 -0.6 96 96 ESE 9 15 30.00 1016 2 3 0.00 0.00
5:16 am 05:16 Cloudy with Mist and Fog 32 0 32 0 100 100 E 5 7 30.12 1020 2 2 0.00 0.00
5:28 am 05:28 Cloudy with Mist and Fog 32 0 30 -1 93 93 ESE 7 11 30.12 1020 2 3 0.00 0.00
5:53 am 05:53 Cloudy with Mist and Fog 32 0 31 -0.6 96 96 SE 10 17 30.04 1017 3 4 0.00 0.00
6:01 am 06:01 Cloudy with Mist and Fog 32 0 31 -0.6 96 96 SE 9 15 30.12 1020 3 5 0.00 0.00
6:20 am 06:20 Cloudy with Mist and Fog 32 0 30 -1 93 93 SE 7 11 30.12 1020 2 3 0.00 0.00
6:38 am 06:38 Cloudy with Mist and Fog 32 0 30 -1 93 93 SE 5 7 30.12 1020 3 5 0.00 0.00
6:48 am 06:48 Cloudy with Mist and Fog 32 0 30 -1 93 93 SE 3 6 30.15 1021 2 3 0.00 0.00
6:53 am 06:53 Cloudy with Mist and Fog 32 0 31 -0.6 96 96 SE 3 6 30.08 1019 2 2 0.00 0.00
7:06 am 07:06 Cloudy with Mist and Fog 32 0 32 0 100 100 Calm 30.12 1020 3 4 0.00 0.00
7:14 am 07:14 Cloudy with Mist and Fog 32 0 30 -1 93 93 S 3 6 30.15 1021 4 6 0.00 0.00
7:53 am 07:53 Cloudy with Mist and Fog 33 0.6 31 -0.6 92 92 SSW 5 7 30.10 1019 5 8 0.00 0.00
8:53 am 08:53 Cloudy with Mist and Fog 33 0.6 31 -0.6 92 92 SW 3 6 30.13 1020 6 10 0.00 0.00
9:53 am 09:53 Cloudy 34 1.1 31 -0.6 89 89 W 6 9 30.16 1021 9 14 0.00 0.00
10:53 am 10:53 Cloudy with Mist and Fog 36 2.2 32 0 86 86 W 9 15 30.18 1022 3 5 0.00 0.00
11:53 am 11:53 Cloudy 37 2.8 31 -0.6 79 79 W 8 13 30.18 1022 10 16 0.00 0.00
12:32 pm 12:32 Partly Cloudy 41 5 32 0 70 70 NW 12 19 30.18 1022 10 16 0.00 0.00
12:53 pm 12:53 Sunny 45 7.2 33 0.6 63 63 NW 10 17 30.16 1022 10 16 0.00 0.00
1:53 pm 13:53 Sunny 47 8.3 31 -0.6 54 54 NW 18 30 30.18 1022 10 16 0.00 0.00
2:53 pm 14:53 Sunny 49 9.4 31 -0.6 50 50 NNW 22 35 30.19 1022 10 16 0.00 0.00
3:53 pm 15:53 Sunny 48 8.9 32 0 54 54 NNW 16 26 30.22 1023 10 16 0.00 0.00
4:53 pm 16:53 Sunny 47 8.3 30 -1.1 52 52 NNW 13 20 30.25 1024 10 16 0.00 0.00
5:53 pm 17:53 Clear 41 5 29 -1.7 62 62 N 8 13 30.29 1026 10 16 0.00 0.00
6:53 pm 18:53 Mostly Cloudy 35 1.7 28 -2.2 76 76 NW 7 11 30.35 1028 10 16 0.00 0.00
7:53 pm 19:53 Clear 30 -1.1 26 -3.3 85 85 NW 7 11 30.38 1029 10 16 0.00 0.00
8:53 pm 20:53 Clear 27 -2.8 24 -4.4 89 89 WNW 3 6 30.40 1029 10 16 0.00 0.00
9:53 pm 21:53 Clear 27 -2.8 24 -4.4 89 89 Calm 30.40 1029 10 16 0.00 0.00
10:53 pm 22:53 Clear 27 -2.8 24 -4.4 89 89 NW 3 6 30.42 1030 10 16 0.00 0.00
11:53 pm 23:53 Clear 23 -5 21 -6.1 92 92 WNW 6 9 30.44 1031 10 16 0.00 0.00

Powered by AerisWeather